Soldotna, AK

3:40 AM AKDT on April 29, 2017 (GMT -0800)
Soldotna

Weather History for PASX - January, 2013

Change the Weather History Date:

Tuesday, January 22, 2013

  Actual Average Record
Temperature  
Mean Temperature 32 °F -  
Max Temperature 35 °F 23 °F 42 °F (1987)
Min Temperature 30 °F 10 °F -35 °F (1971)
Degree Days  
Heating Degree Days 32    
Moisture  
Dew Point 27 °F    
Average Humidity 77    
Maximum Humidity 93    
Minimum Humidity 70    
Precipitation  
Precipitation 0.00 in - - ()
Sea Level Pressure  
Sea Level Pressure 29.51 in    
Wind  
Wind Speed 6 mph (ENE)    
Max Wind Speed 9 mph    
Max Gust Speed -    
Visibility 10 miles    
Events      
Averages and records for this station are not official NWS values.
T = Trace of Precipitation, MM = Missing Value Source: NWS Daily Summary

Daily Weather History Graph

Daily Weather History Graph

Search for Another Location

Airport or City:

Trip Planner

Search our weather history database for the weather conditions in past years. The results will help you decide how hot, cold, wet, or windy it might be!

Date:

Astronomy

Jan. 22, 2013 Rise Set
Actual Time 9:41 AM AKST 4:50 PM AKST
Civil Twilight 8:50 AM AKST 5:42 PM AKST
Nautical Twilight 7:56 AM AKST 6:35 PM AKST
Astronomical Twilight 7:06 AM AKST 7:25 PM AKST
Moon 1:06 PM AKST (1/22) 6:26 AM AKST (1/22)
Length of Visible Light 8h 51m
Length of Day
7h 09m
Waxing Gibbous, 84% of the Moon is Illuminated
Jan 22
Waxing Gibbous
Jan 26
Full
Feb 3
Last Quarter
Feb 9
New
Feb 17
First Quarter

Hourly Weather History & Observations

Time (AKST) Temp. Windchill Dew Point Humidity Pressure Visibility Wind Dir Wind Speed Gust Speed Precip Events Conditions
12:16 AM 33.8 °F 27.7 °F 28.4 °F 81% 29.64 in 10.0 mi ENE 6.9 mph - N/A   Mostly Cloudy
12:36 AM 35.6 °F 28.6 °F 28.4 °F 75% 29.64 in 10.0 mi ENE 9.2 mph - N/A   Overcast
12:56 AM 35.6 °F 28.6 °F 28.4 °F 75% 29.65 in 10.0 mi NE 9.2 mph - N/A   Overcast
1:16 AM 35.6 °F 29.2 °F 28.4 °F 75% 29.64 in 10.0 mi NE 8.1 mph - N/A   Overcast
1:36 AM 35.6 °F 28.6 °F 28.4 °F 75% 29.64 in 10.0 mi NE 9.2 mph - N/A   Overcast
1:56 AM 35.6 °F 29.9 °F 28.4 °F 75% 29.63 in 10.0 mi NE 6.9 mph - N/A   Overcast
2:16 AM 35.6 °F 29.2 °F 28.4 °F 75% 29.62 in 10.0 mi NE 8.1 mph - N/A   Overcast
2:36 AM 35.6 °F 29.2 °F 28.4 °F 75% 29.62 in 10.0 mi ENE 8.1 mph - N/A   Overcast
2:56 AM 35.6 °F 29.2 °F 28.4 °F 75% 29.61 in 10.0 mi ENE 8.1 mph - N/A   Overcast
3:16 AM 35.6 °F 30.7 °F 26.6 °F 70% 29.61 in 10.0 mi NE 5.8 mph - N/A   Overcast
3:36 AM 35.6 °F 30.7 °F 26.6 °F 70% 29.60 in 10.0 mi ENE 5.8 mph - N/A   Overcast
3:56 AM 35.6 °F 29.9 °F 26.6 °F 70% 29.60 in 10.0 mi ENE 6.9 mph - N/A   Overcast
4:16 AM 35.6 °F 29.2 °F 26.6 °F 70% 29.59 in 10.0 mi ENE 8.1 mph - N/A   Overcast
4:36 AM 33.8 °F 28.6 °F 26.6 °F 75% 29.59 in 10.0 mi ENE 5.8 mph - N/A   Overcast
4:56 AM 33.8 °F 27.0 °F 26.6 °F 75% 29.59 in 10.0 mi ENE 8.1 mph - N/A   Overcast
5:16 AM 33.8 °F 28.6 °F 26.6 °F 75% 29.59 in 10.0 mi East 5.8 mph - N/A   Overcast
5:36 AM 33.8 °F 29.6 °F 26.6 °F 75% 29.58 in 10.0 mi ENE 4.6 mph - N/A   Overcast
5:56 AM 33.8 °F 29.6 °F 26.6 °F 75% 29.57 in 10.0 mi East 4.6 mph - N/A   Overcast
6:16 AM 32.0 °F 24.8 °F 26.6 °F 80% 29.56 in 10.0 mi ENE 8.1 mph - N/A   Overcast
6:36 AM 32.0 °F 24.8 °F 26.6 °F 80% 29.56 in 10.0 mi East 8.1 mph - N/A   Overcast
6:56 AM 33.8 °F 27.7 °F 26.6 °F 75% 29.56 in 10.0 mi ESE 6.9 mph - N/A   Overcast
7:16 AM 32.0 °F 26.4 °F 26.6 °F 80% 29.56 in 10.0 mi ESE 5.8 mph - N/A   Overcast
7:36 AM 30.2 °F 25.4 °F 26.6 °F 86% 29.55 in 10.0 mi East 4.6 mph - N/A   Overcast
7:56 AM 30.2 °F 24.3 °F 26.6 °F 86% 29.55 in 10.0 mi ESE 5.8 mph - N/A   Overcast
8:16 AM 30.2 °F 23.4 °F 26.6 °F 86% 29.55 in 10.0 mi ESE 6.9 mph - N/A   Overcast
8:36 AM 30.2 °F 21.9 °F 26.6 °F 86% 29.55 in 10.0 mi East 9.2 mph - N/A   Overcast
8:56 AM 30.2 °F 21.9 °F 26.6 °F 86% 29.55 in 10.0 mi ESE 9.2 mph - N/A   Overcast
9:16 AM 30.2 °F 22.6 °F 26.6 °F 86% 29.54 in 10.0 mi East 8.1 mph - N/A   Overcast
9:36 AM 30.2 °F 23.4 °F 26.6 °F 86% 29.55 in 10.0 mi ESE 6.9 mph - N/A   Overcast
9:56 AM 30.2 °F 23.4 °F 26.6 °F 86% 29.55 in 10.0 mi ESE 6.9 mph - N/A   Mostly Cloudy
10:16 AM 30.2 °F 24.3 °F 26.6 °F 86% 29.55 in 10.0 mi East 5.8 mph - N/A   Overcast
10:36 AM 30.2 °F 25.4 °F 26.6 °F 86% 29.54 in 10.0 mi East 4.6 mph - N/A   Overcast
10:56 AM 32.0 °F 26.4 °F 26.6 °F 80% 29.54 in 10.0 mi East 5.8 mph - N/A   Overcast
11:16 AM 32.0 °F 28.7 °F 26.6 °F 80% 29.54 in 10.0 mi ESE 3.5 mph - N/A   Overcast
11:36 AM 32.0 °F - 26.6 °F 80% 29.54 in 10.0 mi Calm Calm - N/A   Overcast
11:56 AM 33.8 °F 27.7 °F 26.6 °F 75% 29.53 in 10.0 mi NNE 6.9 mph - N/A   Overcast
12:16 PM 35.6 °F 29.9 °F 26.6 °F 70% 29.53 in 10.0 mi NNE 6.9 mph - N/A   Overcast
12:36 PM 35.6 °F 29.9 °F 26.6 °F 70% 29.52 in 10.0 mi NE 6.9 mph - N/A   Overcast
12:56 PM 35.6 °F - 26.6 °F 70% 29.52 in 10.0 mi Calm Calm - N/A   Overcast
1:16 PM 35.6 °F - 26.6 °F 70% 29.51 in 10.0 mi Calm Calm - N/A   Overcast
1:36 PM 35.6 °F 30.7 °F 26.6 °F 70% 29.51 in 10.0 mi NE 5.8 mph - N/A   Overcast
1:56 PM 35.6 °F 31.7 °F 26.6 °F 70% 29.51 in 10.0 mi NE 4.6 mph - N/A   Overcast
2:16 PM 35.6 °F - 26.6 °F 70% 29.50 in 10.0 mi Calm Calm - N/A   Overcast
2:36 PM 35.6 °F - 26.6 °F 70% 29.49 in 10.0 mi Calm Calm - N/A   Overcast
2:56 PM 35.6 °F - 26.6 °F 70% 29.48 in 10.0 mi Calm Calm - N/A   Overcast
3:16 PM 35.6 °F - 26.6 °F 70% 29.47 in 10.0 mi Calm Calm - N/A   Overcast
3:36 PM 35.6 °F - 26.6 °F 70% 29.47 in 10.0 mi Calm Calm - N/A   Overcast
3:56 PM 35.6 °F 31.7 °F 26.6 °F 70% 29.47 in 10.0 mi NE 4.6 mph - N/A   Overcast
4:16 PM 35.6 °F 29.9 °F 26.6 °F 70% 29.46 in 10.0 mi NE 6.9 mph - N/A   Overcast
4:36 PM 35.6 °F 31.7 °F 26.6 °F 70% 29.45 in 10.0 mi NE 4.6 mph - N/A   Overcast
4:56 PM 35.6 °F 29.9 °F 26.6 °F 70% 29.44 in 10.0 mi ENE 6.9 mph - N/A   Overcast
5:16 PM 35.6 °F 30.7 °F 26.6 °F 70% 29.44 in 10.0 mi ENE 5.8 mph - N/A   Overcast
5:36 PM 35.6 °F 29.9 °F 26.6 °F 70% 29.44 in 10.0 mi ENE 6.9 mph - N/A   Overcast
5:56 PM 35.6 °F - 26.6 °F 70% 29.43 in 10.0 mi Calm Calm - N/A   Overcast
6:16 PM 35.6 °F - 26.6 °F 70% 29.43 in 10.0 mi Calm Calm - N/A   Overcast
6:36 PM 35.6 °F - 26.6 °F 70% 29.42 in 10.0 mi Calm Calm - N/A   Overcast
6:56 PM 33.8 °F - 26.6 °F 75% 29.41 in 10.0 mi Calm Calm - N/A   Overcast
7:16 PM 32.0 °F - 26.6 °F 80% 29.41 in 10.0 mi Calm Calm - N/A   Overcast
7:36 PM 33.8 °F 29.6 °F 26.6 °F 75% 29.41 in 10.0 mi East 4.6 mph - N/A   Overcast
7:56 PM 33.8 °F 29.6 °F 26.6 °F 75% 29.41 in 10.0 mi East 4.6 mph - N/A   Overcast
8:16 PM 33.8 °F 28.6 °F 26.6 °F 75% 29.41 in 10.0 mi NE 5.8 mph - N/A   Overcast
8:36 PM 33.8 °F 30.8 °F 26.6 °F 75% 29.40 in 10.0 mi ENE 3.5 mph - N/A   Overcast
8:56 PM 33.8 °F 28.6 °F 26.6 °F 75% 29.40 in 10.0 mi East 5.8 mph - N/A   Overcast
9:16 PM 33.8 °F 27.7 °F 26.6 °F 75% 29.41 in 10.0 mi East 6.9 mph - N/A   Overcast
9:36 PM 33.8 °F 30.8 °F 26.6 °F 75% 29.41 in 10.0 mi ESE 3.5 mph - N/A   Overcast
9:56 PM 33.8 °F 27.0 °F 26.6 °F 75% 29.41 in 10.0 mi ESE 8.1 mph - N/A   Overcast
10:16 PM 33.8 °F 28.6 °F 28.4 °F 81% 29.41 in 10.0 mi East 5.8 mph - N/A   Overcast
10:36 PM 32.0 °F 26.4 °F 28.4 °F 87% 29.40 in 10.0 mi ESE 5.8 mph - N/A   Overcast
10:56 PM 32.0 °F 26.4 °F 28.4 °F 87% 29.40 in 10.0 mi East 5.8 mph - N/A   Overcast
11:16 PM 32.0 °F 25.6 °F 28.4 °F 87% 29.40 in 10.0 mi ESE 6.9 mph - N/A   Overcast
11:36 PM 30.2 °F 25.4 °F 28.4 °F 93% 29.40 in 10.0 mi ESE 4.6 mph - N/A   Overcast
11:56 PM 30.2 °F 25.4 °F 28.4 °F 93% 29.39 in 10.0 mi East 4.6 mph - N/A   Overcast